Humidity-temperature Sensor

Selected Measurement Type: Air Temperature

 
Air Temperature [°C]     6 entries per hour
Showing data from 3/2/2016 (00:00:00 Z) to 3/1/2016 (00:01:00 Z)
Previous Next [ Day | 3-Days | 7-Days ]
First Last
Prev [ Day | 3-Days | 7-Days ] Next
First Last

Start Time:     :
End Time:     :     
Time (in GMT) :00 :50 :40 :30 :20 :10
Previous Next [ Day | 3-Days | 7-Days ]
First Last
Prev [ Day | 3-Days | 7-Days ] Next
First Last


123 => good data
MM => data is determined as missing
-- => data not received/configured
Back to Top Back to Top
3/2/2016 00:00 to 23:10 28.16 28.21 28.16 28.10 28.12 28.09
3/1/2016 23:00 to 22:10 28.07 28.04 28.02 28.02 27.96 27.90
3/1/2016 22:00 to 21:10 27.90 27.94 27.91 27.87 27.91 27.88
3/1/2016 21:00 to 20:10 27.89 27.86 27.84 27.86 27.89 27.88
3/1/2016 20:00 to 19:10 27.92 27.86 27.86 27.91 27.93 27.96
3/1/2016 19:00 to 18:10 28.00 27.97 28.02 28.03 28.04 28.08
3/1/2016 18:00 to 17:10 28.12 28.15 28.16 28.16 28.18 28.23
3/1/2016 17:00 to 16:10 28.19 28.18 28.14 28.06 27.97 27.63
3/1/2016 16:00 to 15:10 27.56 27.45 27.41 27.40 27.43 27.39
3/1/2016 15:00 to 14:10 27.40 27.42 27.43 27.45 27.44 27.43
3/1/2016 14:00 to 13:10 27.44 27.46 27.43 27.43 27.44 27.44
3/1/2016 13:00 to 12:10 27.44 27.46 27.43 27.44 27.42 27.37
3/1/2016 12:00 to 11:10 27.34 27.37 27.40 27.39 27.39 27.35
3/1/2016 11:00 to 10:10 27.38 27.37 27.38 27.41 27.43 27.43
3/1/2016 10:00 to 9:10 27.44 27.45 27.48 27.49 27.49 27.53
3/1/2016 09:00 to 8:10 27.56 27.58 27.59 27.63 27.61 27.63
3/1/2016 08:00 to 7:10 27.61 27.63 27.66 27.66 27.68 27.69
3/1/2016 07:00 to 6:10 27.71 27.72 27.74 27.77 27.77 27.78
3/1/2016 06:00 to 5:10 27.79 27.80 27.80 27.84 27.85 27.81
3/1/2016 05:00 to 4:10 27.85 27.85 27.85 27.83 27.87 27.87
3/1/2016 04:00 to 3:10 27.88 27.87 27.87 27.92 28.04 28.11
3/1/2016 03:00 to 2:10 28.04 27.94 27.95 28.08 28.10 28.09
3/1/2016 02:00 to 1:10 28.10 28.13 28.16 28.11 28.07 28.01
3/1/2016 01:00 to 0:10 28.02 28.02 28.01 28.00 27.97 27.93